Hauptseite
METAR-TAF:

METAR-TAF

Flughäfen :

Paganella, Italien

Breite: 46-09N, Länge: 011-02E, Höhe: 2125 m

Beobachtung

Neuester Wetterbericht von vor 20 Minuten, um 20:55 UTC
Wind 10 kt aus Nord
Temperatur -7°C
Luftfeuchtigkeit 34%
Luftdruck 1011 hPa
Sichtweite 10 km oder mehr
keine Wolken unter 1500 m und keine Kumulonimbus oder Gewitterwolken

METAR: LIVP 152055Z 35010KT CAVOK M07/M20 Q1011 RMK SKC MON LIB VAL NIL VIS MIN 9999

Zeit: 22:15 (21:15 UTC)


TAF: fehlend

Wetterbeobachtungen und Prognosen von mehr als 4000 Flughäfen (METAR und TAF Bericht).

Die verfügbaren Stationen werden durch gelbe und rote Markierungen auf der Karte dargestellt.

Führen Sie die Maus auf sie, um den Namen der Station zu sehen.

Darauf klicken, um die Beobachtung von Wetterbeobachtungen und Prognosen zu sehen.

Um die Karte zu ändern : klicken Sie auf den grünen Tasten mit einem schwarzen Kreuz Zum Vergrößern, auf den grünen Button mit einem Gedankenstrich zu verkleinern, oder auf die grünen Pfeile für benachbarte Karten.


METAR-TAF: